Time,TemperatureF,DewpointF,PressureIn,WindDirection,WindDirectionDegrees,WindSpeedMPH,WindSpeedGustMPH,Humidity,HourlyPrecipIn,Conditions,Clouds,dailyrainin,SoftwareType,DateUTC
2013-05-27 00:01:00,53.1,48.7,30.00,SW,221,4.0,13.0,85,0.00,,,0.00,WUHU216DAVISVP2,2013-05-27 07:01:00,
2013-05-27 00:06:00,53.1,48.7,30.00,SW,225,7.0,13.0,85,0.00,,,0.00,WUHU216DAVISVP2,2013-05-27 07:06:00,
2013-05-27 00:11:00,53.1,48.4,30.00,SSW,195,3.0,12.0,84,0.00,,,0.00,WUHU216DAVISVP2,2013-05-27 07:11:00,
2013-05-27 00:16:00,53.0,48.6,30.00,SSW,210,4.0,12.0,85,0.00,,,0.00,WUHU216DAVISVP2,2013-05-27 07:16:00,
2013-05-27 00:21:00,53.0,48.3,30.00,SW,222,10.0,12.0,84,0.00,,,0.00,WUHU216DAVISVP2,2013-05-27 07:21:00,
2013-05-27 00:26:00,53.0,48.3,30.00,WSW,252,10.0,12.0,84,0.00,,,0.00,WUHU216DAVISVP2,2013-05-27 07:26:00,
2013-05-27 00:31:00,53.1,48.4,30.00,SW,236,13.0,14.0,84,0.00,,,0.00,WUHU216DAVISVP2,2013-05-27 07:31:00,
2013-05-27 00:36:00,53.1,48.4,30.00,SW,221,7.0,14.0,84,0.00,,,0.00,WUHU216DAVISVP2,2013-05-27 07:36:00,
2013-05-27 00:41:00,53.0,48.3,30.00,SW,226,11.0,14.0,84,0.00,,,0.00,WUHU216DAVISVP2,2013-05-27 07:41:00,
2013-05-27 00:46:00,53.0,48.3,30.00,SW,223,4.0,12.0,84,0.00,,,0.00,WUHU216DAVISVP2,2013-05-27 07:46:00,
2013-05-27 00:51:00,53.0,48.3,30.00,WSW,239,6.0,12.0,84,0.00,,,0.00,WUHU216DAVISVP2,2013-05-27 07:51:00,
2013-05-27 00:56:00,53.0,48.3,30.00,SSW,205,7.0,12.0,84,0.00,,,0.00,WUHU216DAVISVP2,2013-05-27 07:56:00,
2013-05-27 01:01:00,52.9,48.2,30.00,WSW,248,8.0,11.0,84,0.00,,,0.00,WUHU216DAVISVP2,2013-05-27 08:01:00,
2013-05-27 01:06:00,52.9,48.5,30.00,SSW,203,4.0,11.0,85,0.00,,,0.00,WUHU216DAVISVP2,2013-05-27 08:06:00,
2013-05-27 01:11:00,52.8,48.4,30.00,SW,233,3.0,10.0,85,0.00,,,0.00,WUHU216DAVISVP2,2013-05-27 08:11:00,
2013-05-27 01:16:00,52.9,48.5,29.99,SSW,212,1.0,10.0,85,0.00,,,0.00,WUHU216DAVISVP2,2013-05-27 08:16:00,
2013-05-27 01:21:00,52.9,48.5,29.99,SE,141,2.0,9.0,85,0.00,,,0.00,WUHU216DAVISVP2,2013-05-27 08:21:00,
2013-05-27 01:26:00,52.9,48.5,29.99,SW,231,1.0,9.0,85,0.00,,,0.00,WUHU216DAVISVP2,2013-05-27 08:26:00,
2013-05-27 01:31:00,52.8,48.7,29.99,SSE,148,1.0,8.0,86,0.00,,,0.00,WUHU216DAVISVP2,2013-05-27 08:31:00,
2013-05-27 01:36:00,52.6,48.8,29.99,SW,235,1.0,8.0,87,0.00,,,0.00,WUHU216DAVISVP2,2013-05-27 08:36:00,
2013-05-27 01:41:00,52.6,48.8,29.99,SE,134,1.0,8.0,87,0.00,,,0.00,WUHU216DAVISVP2,2013-05-27 08:41:00,
2013-05-27 01:46:00,52.6,49.1,29.99,East,93,1.0,8.0,88,0.00,,,0.00,WUHU216DAVISVP2,2013-05-27 08:46:00,
2013-05-27 01:51:00,52.5,49.0,29.99,South,170,0.0,7.0,88,0.00,,,0.00,WUHU216DAVISVP2,2013-05-27 08:51:00,
2013-05-27 01:56:00,52.4,48.9,29.99,SE,124,2.0,7.0,88,0.00,,,0.00,WUHU216DAVISVP2,2013-05-27 08:56:00,
2013-05-27 02:01:00,52.5,49.0,29.99,SSE,160,1.0,5.0,88,0.00,,,0.00,WUHU216DAVISVP2,2013-05-27 09:01:00,
2013-05-27 02:06:00,52.4,48.9,29.98,SW,221,1.0,5.0,88,0.00,,,0.00,WUHU216DAVISVP2,2013-05-27 09:06:00,
2013-05-27 02:11:00,52.4,48.9,29.98,SE,139,2.0,4.0,88,0.00,,,0.00,WUHU216DAVISVP2,2013-05-27 09:11:00,
2013-05-27 02:16:00,52.4,48.9,29.98,SE,132,1.0,4.0,88,0.00,,,0.00,WUHU216DAVISVP2,2013-05-27 09:16:00,
2013-05-27 02:21:00,52.5,48.7,29.98,SE,143,1.0,4.0,87,0.00,,,0.00,WUHU216DAVISVP2,2013-05-27 09:21:00,
2013-05-27 02:26:00,52.5,49.0,29.98,East,84,2.0,4.0,88,0.00,,,0.00,WUHU216DAVISVP2,2013-05-27 09:26:00,
2013-05-27 02:31:00,52.5,49.3,29.98,ENE,72,2.0,4.0,89,0.00,,,0.00,WUHU216DAVISVP2,2013-05-27 09:31:00,
2013-05-27 02:36:00,52.4,49.5,29.97,ENE,70,0.0,3.0,90,0.00,,,0.00,WUHU216DAVISVP2,2013-05-27 09:36:00,
2013-05-27 02:41:00,52.2,49.3,29.97,East,101,0.0,3.0,90,0.00,,,0.00,WUHU216DAVISVP2,2013-05-27 09:41:00,
2013-05-27 02:46:00,52.1,49.2,29.97,East,91,0.0,2.0,90,0.00,,,0.00,WUHU216DAVISVP2,2013-05-27 09:46:00,
2013-05-27 02:51:00,52.0,49.4,29.97,ESE,107,1.0,2.0,91,0.00,,,0.00,WUHU216DAVISVP2,2013-05-27 09:51:00,
2013-05-27 02:56:00,51.9,49.3,29.97,ENE,76,1.0,2.0,91,0.00,,,0.00,WUHU216DAVISVP2,2013-05-27 09:56:00,
2013-05-27 03:01:00,51.8,49.2,29.97,ESE,105,0.0,3.0,91,0.00,,,0.00,WUHU216DAVISVP2,2013-05-27 10:01:00,
2013-05-27 03:06:00,51.7,49.5,29.96,East,84,0.0,3.0,92,0.00,,,0.00,WUHU216DAVISVP2,2013-05-27 10:06:00,
2013-05-27 03:11:00,51.7,49.5,29.96,ENE,69,2.0,3.0,92,0.00,,,0.00,WUHU216DAVISVP2,2013-05-27 10:11:00,
2013-05-27 03:16:00,51.8,49.5,29.96,SE,139,1.0,3.0,92,0.00,,,0.00,WUHU216DAVISVP2,2013-05-27 10:16:00,
2013-05-27 03:21:00,51.8,49.5,29.96,NNE,24,2.0,3.0,92,0.00,,,0.00,WUHU216DAVISVP2,2013-05-27 10:21:00,
2013-05-27 03:26:00,51.8,49.5,29.96,ENE,60,1.0,3.0,92,0.00,,,0.00,WUHU216DAVISVP2,2013-05-27 10:26:00,
2013-05-27 03:31:00,51.9,49.6,29.95,ESE,111,1.0,3.0,92,0.00,,,0.00,WUHU216DAVISVP2,2013-05-27 10:31:00,
2013-05-27 03:36:00,51.9,49.6,29.95,ENE,65,2.0,3.0,92,0.00,,,0.00,WUHU216DAVISVP2,2013-05-27 10:36:00,
2013-05-27 03:41:00,51.9,49.6,29.95,ESE,113,0.0,3.0,92,0.00,,,0.00,WUHU216DAVISVP2,2013-05-27 10:41:00,
2013-05-27 03:46:00,51.9,49.6,29.94,ENE,70,2.0,3.0,92,0.00,,,0.00,WUHU216DAVISVP2,2013-05-27 10:46:00,
2013-05-27 03:51:00,51.9,49.6,29.94,SE,134,1.0,3.0,92,0.00,,,0.00,WUHU216DAVISVP2,2013-05-27 10:51:00,
2013-05-27 03:56:00,52.0,49.7,29.94,ENE,58,2.0,4.0,92,0.00,,,0.00,WUHU216DAVISVP2,2013-05-27 10:56:00,
2013-05-27 04:01:00,52.0,49.7,29.94,ENE,63,1.0,4.0,92,0.00,,,0.00,WUHU216DAVISVP2,2013-05-27 11:01:00,
2013-05-27 04:06:00,51.9,49.6,29.93,East,101,1.0,3.0,92,0.00,,,0.00,WUHU216DAVISVP2,2013-05-27 11:06:00,
2013-05-27 04:11:00,51.9,49.6,29.93,SE,126,0.0,3.0,92,0.00,,,0.00,WUHU216DAVISVP2,2013-05-27 11:11:00,
2013-05-27 04:16:00,51.8,49.5,29.93,East,101,0.0,3.0,92,0.00,,,0.00,WUHU216DAVISVP2,2013-05-27 11:16:00,
2013-05-27 04:21:00,51.7,49.4,29.92,ENE,70,0.0,2.0,92,0.00,,,0.00,WUHU216DAVISVP2,2013-05-27 11:21:00,
2013-05-27 04:26:00,51.7,49.4,29.92,East,84,1.0,2.0,92,0.00,,,0.00,WUHU216DAVISVP2,2013-05-27 11:26:00,
2013-05-27 04:31:00,51.6,49.3,29.92,East,89,0.0,2.0,92,0.00,,,0.00,WUHU216DAVISVP2,2013-05-27 11:31:00,
2013-05-27 04:36:00,51.6,49.6,29.92,East,91,0.0,2.0,93,0.00,,,0.00,WUHU216DAVISVP2,2013-05-27 11:36:00,
2013-05-27 04:41:00,51.5,49.5,29.92,East,80,0.0,1.0,93,0.00,,,0.00,WUHU216DAVISVP2,2013-05-27 11:41:00,
2013-05-27 04:46:00,51.5,49.5,29.92,ENE,65,0.0,1.0,93,0.00,,,0.00,WUHU216DAVISVP2,2013-05-27 11:46:00,
2013-05-27 04:51:00,51.5,49.5,29.92,ENE,65,0.0,2.0,93,0.00,,,0.00,WUHU216DAVISVP2,2013-05-27 11:51:00,
2013-05-27 04:56:00,51.5,49.5,29.91,ENE,71,1.0,2.0,93,0.00,,,0.00,WUHU216DAVISVP2,2013-05-27 11:56:00,
2013-05-27 05:01:00,51.5,49.5,29.91,ENE,67,2.0,2.0,93,0.00,,,0.00,WUHU216DAVISVP2,2013-05-27 12:01:00,
2013-05-27 05:06:00,51.5,49.5,29.91,East,89,0.0,2.0,93,0.00,,,0.00,WUHU216DAVISVP2,2013-05-27 12:06:00,
2013-05-27 05:11:00,51.5,49.5,29.90,East,93,0.0,2.0,93,0.00,,,0.00,WUHU216DAVISVP2,2013-05-27 12:11:00,
2013-05-27 05:16:00,51.6,49.6,29.90,ENE,72,1.0,2.0,93,0.00,,,0.00,WUHU216DAVISVP2,2013-05-27 12:16:00,
2013-05-27 05:21:00,51.6,49.6,29.90,ESE,108,0.0,2.0,93,0.00,,,0.00,WUHU216DAVISVP2,2013-05-27 12:21:00,
2013-05-27 05:26:00,51.6,49.6,29.90,ENE,57,1.0,2.0,93,0.00,,,0.00,WUHU216DAVISVP2,2013-05-27 12:26:00,
2013-05-27 05:31:00,51.6,49.6,29.90,ENE,66,3.0,3.0,93,0.00,,,0.00,WUHU216DAVISVP2,2013-05-27 12:31:00,
2013-05-27 05:36:00,51.7,49.7,29.90,ENE,76,1.0,3.0,93,0.00,,,0.00,WUHU216DAVISVP2,2013-05-27 12:36:00,
2013-05-27 05:41:00,51.7,49.7,29.89,ENE,68,0.0,3.0,93,0.00,,,0.00,WUHU216DAVISVP2,2013-05-27 12:41:00,
2013-05-27 05:46:00,51.7,49.7,29.89,ENE,72,1.0,2.0,93,0.00,,,0.00,WUHU216DAVISVP2,2013-05-27 12:46:00,
2013-05-27 05:51:00,51.7,49.7,29.89,NE,55,1.0,2.0,93,0.00,,,0.00,WUHU216DAVISVP2,2013-05-27 12:51:00,
2013-05-27 05:56:00,51.7,49.7,29.89,ENE,65,2.0,2.0,93,0.00,,,0.00,WUHU216DAVISVP2,2013-05-27 12:56:00,
2013-05-27 06:01:00,51.7,49.7,29.89,ENE,68,2.0,3.0,93,0.00,,,0.00,WUHU216DAVISVP2,2013-05-27 13:01:00,
2013-05-27 06:06:00,51.8,49.8,29.89,East,81,2.0,3.0,93,0.00,,,0.00,WUHU216DAVISVP2,2013-05-27 13:06:00,
2013-05-27 06:11:00,51.9,49.6,29.88,ENE,66,1.0,3.0,92,0.00,,,0.00,WUHU216DAVISVP2,2013-05-27 13:11:00,
2013-05-27 06:16:00,51.9,49.6,29.88,ENE,65,1.0,3.0,92,0.00,,,0.00,WUHU216DAVISVP2,2013-05-27 13:16:00,
2013-05-27 06:21:00,52.0,49.7,29.88,ENE,63,3.0,3.0,92,0.00,,,0.00,WUHU216DAVISVP2,2013-05-27 13:21:00,
2013-05-27 06:26:00,52.0,49.7,29.88,ENE,63,1.0,3.0,92,0.00,,,0.00,WUHU216DAVISVP2,2013-05-27 13:26:00,
2013-05-27 06:31:00,52.0,49.7,29.88,ENE,58,1.0,3.0,92,0.00,,,0.00,WUHU216DAVISVP2,2013-05-27 13:31:00,
2013-05-27 06:36:00,52.1,49.8,29.87,East,93,1.0,3.0,92,0.00,,,0.00,WUHU216DAVISVP2,2013-05-27 13:36:00,
2013-05-27 06:41:00,52.2,49.9,29.87,East,87,0.0,3.0,92,0.00,,,0.00,WUHU216DAVISVP2,2013-05-27 13:41:00,
2013-05-27 06:46:00,52.3,50.0,29.87,East,84,2.0,3.0,92,0.00,,,0.00,WUHU216DAVISVP2,2013-05-27 13:46:00,
2013-05-27 06:51:00,52.4,49.8,29.87,ENE,65,1.0,3.0,91,0.00,,,0.00,WUHU216DAVISVP2,2013-05-27 13:51:00,
2013-05-27 06:56:00,52.5,49.9,29.87,ENE,68,2.0,4.0,91,0.00,,,0.00,WUHU216DAVISVP2,2013-05-27 13:56:00,
2013-05-27 07:01:00,52.6,50.0,29.87,ESE,105,0.0,4.0,91,0.00,,,0.00,WUHU216DAVISVP2,2013-05-27 14:01:00,
2013-05-27 07:06:00,52.6,50.0,29.86,East,85,1.0,3.0,91,0.00,,,0.00,WUHU216DAVISVP2,2013-05-27 14:06:00,
2013-05-27 07:11:00,52.7,50.1,29.86,ESE,121,0.0,3.0,91,0.00,,,0.00,WUHU216DAVISVP2,2013-05-27 14:11:00,
2013-05-27 07:16:00,52.9,50.3,29.86,ENE,65,1.0,3.0,91,0.00,,,0.00,WUHU216DAVISVP2,2013-05-27 14:16:00,
2013-05-27 07:21:00,53.0,50.4,29.86,ESE,123,0.0,3.0,91,0.00,,,0.00,WUHU216DAVISVP2,2013-05-27 14:21:00,
2013-05-27 07:26:00,53.2,50.3,29.85,NE,48,0.0,3.0,90,0.00,,,0.00,WUHU216DAVISVP2,2013-05-27 14:26:00,
2013-05-27 07:31:00,53.3,50.4,29.85,ENE,75,0.0,5.0,90,0.00,,,0.00,WUHU216DAVISVP2,2013-05-27 14:31:00,
2013-05-27 07:36:00,53.4,50.5,29.85,ESE,120,0.0,5.0,90,0.00,,,0.00,WUHU216DAVISVP2,2013-05-27 14:36:00,
2013-05-27 07:41:00,53.6,50.4,29.85,ENE,70,3.0,4.0,89,0.00,,,0.00,WUHU216DAVISVP2,2013-05-27 14:41:00,
2013-05-27 07:46:00,53.6,50.4,29.84,ENE,72,3.0,5.0,89,0.00,,,0.00,WUHU216DAVISVP2,2013-05-27 14:46:00,
2013-05-27 07:51:00,53.6,50.1,29.84,NE,52,3.0,5.0,88,0.00,,,0.00,WUHU216DAVISVP2,2013-05-27 14:51:00,
2013-05-27 07:56:00,53.5,50.0,29.84,NE,56,2.0,6.0,88,0.00,,,0.00,WUHU216DAVISVP2,2013-05-27 14:56:00,
2013-05-27 08:01:00,53.5,50.0,29.84,NE,54,5.0,6.0,88,0.00,,,0.00,WUHU216DAVISVP2,2013-05-27 15:01:00,
2013-05-27 08:06:00,53.4,50.2,29.83,ENE,63,2.0,5.0,89,0.00,,,0.00,WUHU216DAVISVP2,2013-05-27 15:06:00,
2013-05-27 08:11:00,53.6,50.7,29.83,ENE,77,0.0,5.0,90,0.00,,,0.00,WUHU216DAVISVP2,2013-05-27 15:11:00,
2013-05-27 08:16:00,53.6,50.7,29.83,SE,136,1.0,5.0,90,0.00,,,0.00,WUHU216DAVISVP2,2013-05-27 15:16:00,
2013-05-27 08:21:00,53.7,50.8,29.83,NE,54,2.0,4.0,90,0.00,,,0.00,WUHU216DAVISVP2,2013-05-27 15:21:00,
2013-05-27 08:26:00,53.7,50.8,29.83,ESE,123,0.0,3.0,90,0.00,,,0.00,WUHU216DAVISVP2,2013-05-27 15:26:00,
2013-05-27 08:31:00,53.8,50.9,29.83,ENE,58,1.0,3.0,90,0.00,,,0.00,WUHU216DAVISVP2,2013-05-27 15:31:00,
2013-05-27 08:36:00,53.8,50.9,29.83,SE,135,1.0,3.0,90,0.00,,,0.00,WUHU216DAVISVP2,2013-05-27 15:36:00,
2013-05-27 08:41:00,53.9,51.0,29.83,ENE,70,2.0,3.0,90,0.00,,,0.00,WUHU216DAVISVP2,2013-05-27 15:41:00,
2013-05-27 08:46:00,53.8,51.2,29.83,ENE,75,0.0,3.0,91,0.00,,,0.00,WUHU216DAVISVP2,2013-05-27 15:46:00,
2013-05-27 08:51:00,53.7,51.1,29.82,NE,51,2.0,3.0,91,0.01,,,0.01,WUHU216DAVISVP2,2013-05-27 15:51:00,
2013-05-27 08:56:00,53.7,51.1,29.82,ESE,103,1.0,3.0,91,0.01,,,0.01,WUHU216DAVISVP2,2013-05-27 15:56:00,
2013-05-27 09:01:00,53.6,51.0,29.82,ESE,114,1.0,4.0,91,0.01,,,0.01,WUHU216DAVISVP2,2013-05-27 16:01:00,
2013-05-27 09:06:00,53.6,51.0,29.81,East,86,1.0,4.0,91,0.01,,,0.01,WUHU216DAVISVP2,2013-05-27 16:06:00,
2013-05-27 09:11:00,53.6,51.3,29.81,ENE,70,1.0,4.0,92,0.02,,,0.02,WUHU216DAVISVP2,2013-05-27 16:11:00,
2013-05-27 09:16:00,53.7,51.4,29.81,East,79,2.0,4.0,92,0.02,,,0.02,WUHU216DAVISVP2,2013-05-27 16:16:00,
2013-05-27 09:21:00,53.7,51.4,29.81,ENE,58,3.0,4.0,92,0.02,,,0.02,WUHU216DAVISVP2,2013-05-27 16:21:00,
2013-05-27 09:26:00,53.7,51.4,29.80,ENE,59,0.0,4.0,92,0.03,,,0.03,WUHU216DAVISVP2,2013-05-27 16:26:00,
2013-05-27 09:31:00,53.9,51.9,29.80,East,94,1.0,4.0,93,0.03,,,0.03,WUHU216DAVISVP2,2013-05-27 16:31:00,
2013-05-27 09:36:00,53.9,51.9,29.80,ENE,72,4.0,5.0,93,0.03,,,0.03,WUHU216DAVISVP2,2013-05-27 16:36:00,
2013-05-27 09:41:00,53.8,51.5,29.79,ENE,76,3.0,6.0,92,0.03,,,0.03,WUHU216DAVISVP2,2013-05-27 16:41:00,
2013-05-27 09:46:00,53.9,51.9,29.79,ENE,59,1.0,6.0,93,0.03,,,0.03,WUHU216DAVISVP2,2013-05-27 16:46:00,
2013-05-27 09:51:00,53.9,51.6,29.79,ENE,65,2.0,5.0,92,0.02,,,0.03,WUHU216DAVISVP2,2013-05-27 16:51:00,
2013-05-27 09:56:00,53.9,51.6,29.79,ESE,110,1.0,5.0,92,0.03,,,0.04,WUHU216DAVISVP2,2013-05-27 16:56:00,
2013-05-27 10:01:00,54.1,52.1,29.79,NE,51,2.0,5.0,93,0.03,,,0.04,WUHU216DAVISVP2,2013-05-27 17:01:00,
2013-05-27 10:06:00,54.1,51.8,29.79,SE,132,1.0,4.0,92,0.04,,,0.05,WUHU216DAVISVP2,2013-05-27 17:06:00,
2013-05-27 10:11:00,54.0,51.7,29.79,ENE,75,1.0,5.0,92,0.03,,,0.05,WUHU216DAVISVP2,2013-05-27 17:11:00,
2013-05-27 10:16:00,54.2,52.2,29.78,East,87,2.0,5.0,93,0.03,,,0.05,WUHU216DAVISVP2,2013-05-27 17:16:00,
2013-05-27 10:21:00,54.2,51.9,29.78,SE,135,1.0,4.0,92,0.03,,,0.05,WUHU216DAVISVP2,2013-05-27 17:21:00,
2013-05-27 10:26:00,54.3,52.0,29.78,ENE,70,3.0,5.0,92,0.02,,,0.05,WUHU216DAVISVP2,2013-05-27 17:26:00,
2013-05-27 10:31:00,54.6,52.3,29.78,ENE,72,0.0,5.0,92,0.03,,,0.06,WUHU216DAVISVP2,2013-05-27 17:31:00,
2013-05-27 10:36:00,54.9,52.6,29.78,ENE,63,3.0,6.0,92,0.03,,,0.06,WUHU216DAVISVP2,2013-05-27 17:36:00,
2013-05-27 10:41:00,54.9,52.6,29.78,ENE,62,1.0,6.0,92,0.03,,,0.06,WUHU216DAVISVP2,2013-05-27 17:41:00,
2013-05-27 10:46:00,55.0,52.4,29.78,ESE,107,2.0,8.0,91,0.03,,,0.06,WUHU216DAVISVP2,2013-05-27 17:46:00,
2013-05-27 10:51:00,55.1,51.9,29.77,ESE,113,3.0,8.0,89,0.03,,,0.06,WUHU216DAVISVP2,2013-05-27 17:51:00,
2013-05-27 10:56:00,55.3,52.4,29.77,ENE,66,1.0,8.0,90,0.02,,,0.06,WUHU216DAVISVP2,2013-05-27 17:56:00,
2013-05-27 11:01:00,55.6,52.7,29.77,ENE,58,0.0,8.0,90,0.02,,,0.06,WUHU216DAVISVP2,2013-05-27 18:01:00,
2013-05-27 11:06:00,55.7,52.5,29.77,NE,44,3.0,7.0,89,0.01,,,0.06,WUHU216DAVISVP2,2013-05-27 18:06:00,
2013-05-27 11:11:00,55.9,52.4,29.77,ESE,108,2.0,7.0,88,0.01,,,0.06,WUHU216DAVISVP2,2013-05-27 18:11:00,
2013-05-27 11:16:00,56.1,52.9,29.77,ENE,63,4.0,6.0,89,0.01,,,0.06,WUHU216DAVISVP2,2013-05-27 18:16:00,
2013-05-27 11:21:00,56.4,52.9,29.77,SSE,160,2.0,6.0,88,0.01,,,0.06,WUHU216DAVISVP2,2013-05-27 18:21:00,
2013-05-27 11:26:00,56.6,52.5,29.77,SSE,166,3.0,7.0,86,0.01,,,0.06,WUHU216DAVISVP2,2013-05-27 18:26:00,
2013-05-27 11:31:00,56.7,52.9,29.77,SSE,156,0.0,7.0,87,0.01,,,0.07,WUHU216DAVISVP2,2013-05-27 18:31:00,
2013-05-27 11:36:00,57.0,53.2,29.76,East,89,3.0,6.0,87,0.01,,,0.07,WUHU216DAVISVP2,2013-05-27 18:36:00,
2013-05-27 11:41:00,57.0,53.2,29.76,East,98,1.0,6.0,87,0.01,,,0.07,WUHU216DAVISVP2,2013-05-27 18:41:00,
2013-05-27 11:46:00,57.1,52.9,29.76,East,86,4.0,6.0,86,0.01,,,0.07,WUHU216DAVISVP2,2013-05-27 18:46:00,
2013-05-27 11:51:00,56.9,53.1,29.76,NE,49,0.0,6.0,87,0.01,,,0.07,WUHU216DAVISVP2,2013-05-27 18:51:00,
2013-05-27 11:56:00,57.0,53.2,29.76,ENE,75,1.0,6.0,87,0.01,,,0.07,WUHU216DAVISVP2,2013-05-27 18:56:00,
2013-05-27 12:01:00,57.1,53.3,29.76,ENE,61,2.0,6.0,87,0.01,,,0.07,WUHU216DAVISVP2,2013-05-27 19:01:00,
2013-05-27 12:06:00,57.3,53.5,29.76,ESE,108,4.0,8.0,87,0.01,,,0.07,WUHU216DAVISVP2,2013-05-27 19:06:00,
2013-05-27 12:11:00,57.4,53.2,29.76,ESE,108,2.0,8.0,86,0.02,,,0.08,WUHU216DAVISVP2,2013-05-27 19:11:00,
2013-05-27 12:16:00,57.4,53.2,29.76,NE,47,2.0,8.0,86,0.02,,,0.08,WUHU216DAVISVP2,2013-05-27 19:16:00,
2013-05-27 12:21:00,57.4,53.2,29.76,NNE,16,1.0,8.0,86,0.02,,,0.08,WUHU216DAVISVP2,2013-05-27 19:21:00,
2013-05-27 12:26:00,57.3,53.5,29.76,East,96,0.0,6.0,87,0.03,,,0.09,WUHU216DAVISVP2,2013-05-27 19:26:00,
2013-05-27 12:31:00,57.3,53.5,29.76,ENE,64,2.0,6.0,87,0.02,,,0.09,WUHU216DAVISVP2,2013-05-27 19:31:00,
2013-05-27 12:36:00,57.3,53.5,29.76,ENE,63,5.0,5.0,87,0.02,,,0.09,WUHU216DAVISVP2,2013-05-27 19:36:00,
2013-05-27 12:41:00,57.2,53.7,29.76,East,90,4.0,8.0,88,0.02,,,0.09,WUHU216DAVISVP2,2013-05-27 19:41:00,
2013-05-27 12:46:00,57.3,53.8,29.75,SE,135,3.0,8.0,88,0.03,,,0.10,WUHU216DAVISVP2,2013-05-27 19:46:00,
2013-05-27 12:51:00,57.2,53.7,29.75,ESE,111,1.0,7.0,88,0.03,,,0.10,WUHU216DAVISVP2,2013-05-27 19:51:00,
2013-05-27 12:56:00,57.4,53.9,29.75,ESE,117,3.0,7.0,88,0.03,,,0.10,WUHU216DAVISVP2,2013-05-27 19:56:00,
2013-05-27 13:01:00,57.4,53.9,29.75,SE,134,3.0,7.0,88,0.03,,,0.10,WUHU216DAVISVP2,2013-05-27 20:01:00,
2013-05-27 13:06:00,57.4,53.9,29.75,ENE,68,2.0,6.0,88,0.03,,,0.10,WUHU216DAVISVP2,2013-05-27 20:06:00,
2013-05-27 13:11:00,57.3,53.5,29.75,SE,141,3.0,6.0,87,0.03,,,0.11,WUHU216DAVISVP2,2013-05-27 20:11:00,
2013-05-27 13:16:00,57.3,53.8,29.75,East,88,4.0,5.0,88,0.03,,,0.11,WUHU216DAVISVP2,2013-05-27 20:16:00,
2013-05-27 13:21:00,57.3,54.1,29.75,East,93,1.0,7.0,89,0.03,,,0.11,WUHU216DAVISVP2,2013-05-27 20:21:00,
2013-05-27 13:26:00,57.3,53.8,29.75,SE,132,1.0,7.0,88,0.03,,,0.12,WUHU216DAVISVP2,2013-05-27 20:26:00,
2013-05-27 13:31:00,57.3,54.1,29.75,ENE,66,1.0,7.0,89,0.03,,,0.12,WUHU216DAVISVP2,2013-05-27 20:31:00,
2013-05-27 13:36:00,57.2,54.0,29.75,ESE,105,2.0,7.0,89,0.04,,,0.13,WUHU216DAVISVP2,2013-05-27 20:36:00,
2013-05-27 13:41:00,57.2,54.3,29.75,SSE,155,1.0,6.0,90,0.05,,,0.14,WUHU216DAVISVP2,2013-05-27 20:41:00,
2013-05-27 13:46:00,57.3,54.4,29.75,ESE,105,3.0,6.0,90,0.04,,,0.14,WUHU216DAVISVP2,2013-05-27 20:46:00,
2013-05-27 13:51:00,57.3,54.1,29.75,SSW,195,2.0,6.0,89,0.05,,,0.15,WUHU216DAVISVP2,2013-05-27 20:51:00,
2013-05-27 13:56:00,57.3,54.1,29.75,East,83,0.0,6.0,89,0.05,,,0.15,WUHU216DAVISVP2,2013-05-27 20:56:00,
2013-05-27 14:01:00,57.4,54.2,29.75,East,82,2.0,5.0,89,0.05,,,0.15,WUHU216DAVISVP2,2013-05-27 21:01:00,
2013-05-27 14:06:00,57.4,54.5,29.75,SSE,148,0.0,5.0,90,0.06,,,0.16,WUHU216DAVISVP2,2013-05-27 21:06:00,
2013-05-27 14:11:00,57.6,54.7,29.75,ESE,112,2.0,5.0,90,0.05,,,0.16,WUHU216DAVISVP2,2013-05-27 21:11:00,
2013-05-27 14:16:00,57.5,54.6,29.75,East,84,1.0,5.0,90,0.06,,,0.17,WUHU216DAVISVP2,2013-05-27 21:16:00,
2013-05-27 14:21:00,57.4,54.5,29.75,ESE,103,3.0,5.0,90,0.07,,,0.18,WUHU216DAVISVP2,2013-05-27 21:21:00,
2013-05-27 14:26:00,57.3,54.7,29.75,East,93,3.0,5.0,91,0.06,,,0.18,WUHU216DAVISVP2,2013-05-27 21:26:00,
2013-05-27 14:31:00,57.2,54.3,29.75,NNE,25,1.0,5.0,90,0.06,,,0.18,WUHU216DAVISVP2,2013-05-27 21:31:00,
2013-05-27 14:36:00,57.4,54.8,29.75,East,80,0.0,5.0,91,0.05,,,0.18,WUHU216DAVISVP2,2013-05-27 21:36:00,
2013-05-27 14:41:00,57.6,55.3,29.75,SSE,166,0.0,4.0,92,0.04,,,0.18,WUHU216DAVISVP2,2013-05-27 21:41:00,
2013-05-27 14:46:00,57.6,55.0,29.75,SSE,165,2.0,5.0,91,0.04,,,0.18,WUHU216DAVISVP2,2013-05-27 21:46:00,
2013-05-27 14:51:00,57.5,54.0,29.76,SSE,162,2.0,10.0,88,0.03,,,0.18,WUHU216DAVISVP2,2013-05-27 21:51:00,
2013-05-27 14:56:00,57.5,54.3,29.76,ENE,76,1.0,10.0,89,0.03,,,0.18,WUHU216DAVISVP2,2013-05-27 21:56:00,
2013-05-27 15:01:00,57.5,53.6,29.76,East,83,6.0,10.0,87,0.03,,,0.18,WUHU216DAVISVP2,2013-05-27 22:01:00,
2013-05-27 15:06:00,57.7,53.2,29.76,South,174,3.0,10.0,85,0.02,,,0.18,WUHU216DAVISVP2,2013-05-27 22:06:00,
2013-05-27 15:11:00,57.8,53.6,29.76,SSE,168,1.0,9.0,86,0.03,,,0.19,WUHU216DAVISVP2,2013-05-27 22:11:00,
2013-05-27 15:16:00,57.6,53.4,29.76,ENE,63,3.0,9.0,86,0.02,,,0.19,WUHU216DAVISVP2,2013-05-27 22:16:00,
2013-05-27 15:21:00,57.5,54.0,29.76,ESE,121,4.0,8.0,88,0.01,,,0.19,WUHU216DAVISVP2,2013-05-27 22:21:00,
2013-05-27 15:26:00,57.4,53.9,29.76,SE,132,1.0,5.0,88,0.01,,,0.19,WUHU216DAVISVP2,2013-05-27 22:26:00,
2013-05-27 15:31:00,57.2,53.7,29.76,SE,125,4.0,5.0,88,0.01,,,0.19,WUHU216DAVISVP2,2013-05-27 22:31:00,
2013-05-27 15:36:00,57.0,53.8,29.76,ENE,77,7.0,7.0,89,0.02,,,0.20,WUHU216DAVISVP2,2013-05-27 22:36:00,
2013-05-27 15:41:00,56.8,53.6,29.76,ENE,77,3.0,7.0,89,0.02,,,0.20,WUHU216DAVISVP2,2013-05-27 22:41:00,
2013-05-27 15:46:00,56.8,53.6,29.76,ENE,72,5.0,7.0,89,0.02,,,0.20,WUHU216DAVISVP2,2013-05-27 22:46:00,
2013-05-27 15:51:00,56.9,54.0,29.76,ENE,68,1.0,6.0,90,0.03,,,0.21,WUHU216DAVISVP2,2013-05-27 22:51:00,
2013-05-27 15:56:00,56.9,54.0,29.76,ESE,110,0.0,6.0,90,0.03,,,0.21,WUHU216DAVISVP2,2013-05-27 22:56:00,
2013-05-27 16:01:00,56.9,54.0,29.76,ENE,68,2.0,5.0,90,0.03,,,0.21,WUHU216DAVISVP2,2013-05-27 23:01:00,
2013-05-27 16:06:00,57.0,54.4,29.76,ENE,73,1.0,5.0,91,0.03,,,0.21,WUHU216DAVISVP2,2013-05-27 23:06:00,
2013-05-27 16:11:00,57.1,54.5,29.76,South,185,2.0,6.0,91,0.02,,,0.21,WUHU216DAVISVP2,2013-05-27 23:11:00,
2013-05-27 16:16:00,57.1,54.2,29.76,East,93,2.0,8.0,90,0.02,,,0.21,WUHU216DAVISVP2,2013-05-27 23:16:00,
2013-05-27 16:21:00,57.2,54.6,29.76,NE,56,2.0,8.0,91,0.02,,,0.21,WUHU216DAVISVP2,2013-05-27 23:21:00,
2013-05-27 16:26:00,57.2,54.3,29.76,ENE,72,2.0,7.0,90,0.02,,,0.21,WUHU216DAVISVP2,2013-05-27 23:26:00,
2013-05-27 16:31:00,57.2,54.0,29.76,ENE,65,5.0,7.0,89,0.02,,,0.21,WUHU216DAVISVP2,2013-05-27 23:31:00,
2013-05-27 16:36:00,57.2,54.0,29.76,ENE,74,4.0,6.0,89,0.01,,,0.21,WUHU216DAVISVP2,2013-05-27 23:36:00,
2013-05-27 16:41:00,57.3,54.1,29.76,ESE,110,2.0,6.0,89,0.01,,,0.21,WUHU216DAVISVP2,2013-05-27 23:41:00,
2013-05-27 16:46:00,57.2,54.3,29.76,NE,54,1.0,6.0,90,0.02,,,0.22,WUHU216DAVISVP2,2013-05-27 23:46:00,
2013-05-27 16:51:00,57.0,53.8,29.76,ESE,108,1.0,6.0,89,0.01,,,0.22,WUHU216DAVISVP2,2013-05-27 23:51:00,
2013-05-27 16:56:00,56.9,54.0,29.76,ENE,61,2.0,6.0,90,0.01,,,0.22,WUHU216DAVISVP2,2013-05-27 23:56:00,
2013-05-27 17:01:00,56.9,54.0,29.75,ESE,111,1.0,6.0,90,0.01,,,0.22,WUHU216DAVISVP2,2013-05-28 00:01:00,
2013-05-27 17:06:00,57.1,54.5,29.75,ENE,59,4.0,4.0,91,0.01,,,0.22,WUHU216DAVISVP2,2013-05-28 00:06:00,
2013-05-27 17:11:00,57.4,54.8,29.75,NE,51,2.0,5.0,91,0.01,,,0.22,WUHU216DAVISVP2,2013-05-28 00:11:00,
2013-05-27 17:16:00,57.6,54.7,29.75,ESE,108,0.0,6.0,90,0.01,,,0.22,WUHU216DAVISVP2,2013-05-28 00:16:00,
2013-05-27 17:21:00,57.6,54.4,29.76,SSE,150,4.0,6.0,89,0.01,,,0.22,WUHU216DAVISVP2,2013-05-28 00:21:00,
2013-05-27 17:26:00,57.6,54.1,29.76,East,80,1.0,7.0,88,0.02,,,0.23,WUHU216DAVISVP2,2013-05-28 00:26:00,
2013-05-27 17:31:00,57.4,54.5,29.76,SSE,155,1.0,7.0,90,0.09,,,0.30,WUHU216DAVISVP2,2013-05-28 00:31:00,
2013-05-27 17:36:00,57.1,54.5,29.76,SE,134,4.0,7.0,91,0.14,,,0.35,WUHU216DAVISVP2,2013-05-28 00:36:00,
2013-05-27 17:41:00,56.7,54.4,29.75,ENE,64,3.0,7.0,92,0.18,,,0.39,WUHU216DAVISVP2,2013-05-28 00:41:00,
2013-05-27 17:46:00,56.4,54.4,29.75,SE,139,2.0,6.0,93,0.17,,,0.39,WUHU216DAVISVP2,2013-05-28 00:46:00,
2013-05-27 17:51:00,56.7,55.0,29.75,South,170,1.0,6.0,94,0.17,,,0.39,WUHU216DAVISVP2,2013-05-28 00:51:00,
2013-05-27 17:56:00,56.9,55.2,29.75,ESE,123,1.0,5.0,94,0.17,,,0.39,WUHU216DAVISVP2,2013-05-28 00:56:00,
2013-05-27 18:01:00,57.1,55.4,29.75,East,93,1.0,5.0,94,0.17,,,0.39,WUHU216DAVISVP2,2013-05-28 01:01:00,
2013-05-27 18:06:00,57.0,55.0,29.75,SSE,161,3.0,5.0,93,0.17,,,0.39,WUHU216DAVISVP2,2013-05-28 01:06:00,
2013-05-27 18:11:00,57.1,55.1,29.75,SW,219,1.0,5.0,93,0.17,,,0.39,WUHU216DAVISVP2,2013-05-28 01:11:00,
2013-05-27 18:16:00,57.1,54.8,29.76,SSW,197,3.0,8.0,92,0.19,,,0.41,WUHU216DAVISVP2,2013-05-28 01:16:00,
2013-05-27 18:21:00,56.9,54.9,29.76,SE,124,0.0,8.0,93,0.20,,,0.42,WUHU216DAVISVP2,2013-05-28 01:21:00,
2013-05-27 18:26:00,56.9,54.9,29.76,SSE,150,2.0,8.0,93,0.19,,,0.42,WUHU216DAVISVP2,2013-05-28 01:26:00,
2013-05-27 18:31:00,56.9,55.2,29.76,SSW,205,1.0,8.0,94,0.12,,,0.42,WUHU216DAVISVP2,2013-05-28 01:31:00,
2013-05-27 18:36:00,57.0,55.0,29.76,SW,226,7.0,7.0,93,0.07,,,0.42,WUHU216DAVISVP2,2013-05-28 01:36:00,
2013-05-27 18:41:00,57.2,55.2,29.76,SW,226,1.0,7.0,93,0.03,,,0.42,WUHU216DAVISVP2,2013-05-28 01:41:00,
2013-05-27 18:46:00,57.3,55.3,29.76,SSE,155,3.0,7.0,93,0.03,,,0.42,WUHU216DAVISVP2,2013-05-28 01:46:00,
2013-05-27 18:51:00,57.4,55.4,29.76,SSE,156,1.0,7.0,93,0.03,,,0.42,WUHU216DAVISVP2,2013-05-28 01:51:00,
2013-05-27 18:56:00,57.4,55.4,29.76,ENE,74,2.0,5.0,93,0.03,,,0.42,WUHU216DAVISVP2,2013-05-28 01:56:00,
2013-05-27 19:01:00,57.3,55.0,29.76,SSE,148,2.0,5.0,92,0.03,,,0.42,WUHU216DAVISVP2,2013-05-28 02:01:00,
2013-05-27 19:06:00,57.2,55.2,29.76,ESE,120,3.0,5.0,93,0.03,,,0.42,WUHU216DAVISVP2,2013-05-28 02:06:00,
2013-05-27 19:11:00,57.2,55.2,29.76,South,179,3.0,5.0,93,0.03,,,0.42,WUHU216DAVISVP2,2013-05-28 02:11:00,
2013-05-27 19:16:00,57.1,55.1,29.76,SSW,207,4.0,8.0,93,0.01,,,0.42,WUHU216DAVISVP2,2013-05-28 02:16:00,
2013-05-27 19:21:00,57.1,54.8,29.77,South,190,2.0,9.0,92,0.00,,,0.42,WUHU216DAVISVP2,2013-05-28 02:21:00,
2013-05-27 19:26:00,57.0,54.7,29.77,WSW,239,1.0,9.0,92,0.00,,,0.42,WUHU216DAVISVP2,2013-05-28 02:26:00,
2013-05-27 19:31:00,57.0,54.7,29.77,South,184,3.0,9.0,92,0.00,,,0.42,WUHU216DAVISVP2,2013-05-28 02:31:00,
2013-05-27 19:36:00,56.8,54.5,29.77,WSW,245,2.0,9.0,92,0.00,,,0.42,WUHU216DAVISVP2,2013-05-28 02:36:00,
2013-05-27 19:41:00,56.7,54.1,29.77,SW,214,3.0,13.0,91,0.00,,,0.42,WUHU216DAVISVP2,2013-05-28 02:41:00,
2013-05-27 19:46:00,56.5,53.9,29.77,SW,235,6.0,13.0,91,0.00,,,0.42,WUHU216DAVISVP2,2013-05-28 02:46:00,
2013-05-27 19:51:00,56.4,53.8,29.77,SSW,197,6.0,13.0,91,0.00,,,0.42,WUHU216DAVISVP2,2013-05-28 02:51:00,
2013-05-27 19:56:00,56.3,53.7,29.78,SW,232,4.0,13.0,91,0.00,,,0.42,WUHU216DAVISVP2,2013-05-28 02:56:00,
2013-05-27 20:01:00,56.3,53.7,29.78,WSW,241,6.0,12.0,91,0.00,,,0.42,WUHU216DAVISVP2,2013-05-28 03:01:00,
2013-05-27 20:06:00,56.2,53.6,29.78,SW,228,4.0,13.0,91,0.00,,,0.42,WUHU216DAVISVP2,2013-05-28 03:06:00,
2013-05-27 20:11:00,56.1,53.2,29.78,WSW,252,8.0,13.0,90,0.00,,,0.42,WUHU216DAVISVP2,2013-05-28 03:11:00,
2013-05-27 20:16:00,55.9,53.0,29.78,WSW,239,6.0,13.0,90,0.00,,,0.42,WUHU216DAVISVP2,2013-05-28 03:16:00,
2013-05-27 20:21:00,55.7,52.8,29.78,SSE,154,2.0,14.0,90,0.00,,,0.42,WUHU216DAVISVP2,2013-05-28 03:21:00,
2013-05-27 20:26:00,55.6,52.4,29.78,WSW,243,9.0,14.0,89,0.00,,,0.42,WUHU216DAVISVP2,2013-05-28 03:26:00,
2013-05-27 20:31:00,55.5,52.3,29.78,SW,223,9.0,14.0,89,0.00,,,0.42,WUHU216DAVISVP2,2013-05-28 03:31:00,
2013-05-27 20:36:00,55.4,52.5,29.78,SW,221,6.0,14.0,90,0.00,,,0.42,WUHU216DAVISVP2,2013-05-28 03:36:00,
2013-05-27 20:41:00,55.3,52.4,29.78,SSW,194,8.0,12.0,90,0.00,,,0.42,WUHU216DAVISVP2,2013-05-28 03:41:00,
2013-05-27 20:46:00,55.3,52.1,29.78,SSW,207,3.0,11.0,89,0.00,,,0.42,WUHU216DAVISVP2,2013-05-28 03:46:00,
2013-05-27 20:51:00,55.3,52.1,29.78,SW,219,7.0,11.0,89,0.00,,,0.42,WUHU216DAVISVP2,2013-05-28 03:51:00,
2013-05-27 20:56:00,55.3,52.1,29.78,South,187,1.0,11.0,89,0.00,,,0.42,WUHU216DAVISVP2,2013-05-28 03:56:00,
2013-05-27 21:01:00,55.3,52.1,29.78,SSW,204,3.0,11.0,89,0.00,,,0.42,WUHU216DAVISVP2,2013-05-28 04:01:00,
2013-05-27 21:06:00,55.1,51.9,29.78,WSW,248,10.0,10.0,89,0.00,,,0.42,WUHU216DAVISVP2,2013-05-28 04:06:00,
2013-05-27 21:11:00,55.0,52.1,29.79,WSW,248,6.0,10.0,90,0.00,,,0.42,WUHU216DAVISVP2,2013-05-28 04:11:00,
2013-05-27 21:16:00,55.0,52.1,29.79,WSW,240,12.0,12.0,90,0.00,,,0.42,WUHU216DAVISVP2,2013-05-28 04:16:00,
2013-05-27 21:21:00,54.9,51.7,29.79,SW,228,3.0,12.0,89,0.00,,,0.42,WUHU216DAVISVP2,2013-05-28 04:21:00,
2013-05-27 21:26:00,54.9,51.7,29.79,WNW,286,3.0,12.0,89,0.00,,,0.42,WUHU216DAVISVP2,2013-05-28 04:26:00,
2013-05-27 21:31:00,54.8,51.6,29.79,SW,219,12.0,12.0,89,0.00,,,0.42,WUHU216DAVISVP2,2013-05-28 04:31:00,
2013-05-27 21:36:00,54.8,51.6,29.80,WSW,241,3.0,13.0,89,0.00,,,0.42,WUHU216DAVISVP2,2013-05-28 04:36:00,
2013-05-27 21:41:00,54.7,51.8,29.80,SW,235,7.0,13.0,90,0.00,,,0.42,WUHU216DAVISVP2,2013-05-28 04:41:00,
2013-05-27 21:46:00,54.7,51.8,29.80,SW,217,5.0,12.0,90,0.00,,,0.42,WUHU216DAVISVP2,2013-05-28 04:46:00,
2013-05-27 21:51:00,54.7,51.8,29.80,SW,219,4.0,11.0,90,0.00,,,0.42,WUHU216DAVISVP2,2013-05-28 04:51:00,
2013-05-27 21:56:00,54.6,51.7,29.80,SSW,200,8.0,13.0,90,0.00,,,0.42,WUHU216DAVISVP2,2013-05-28 04:56:00,
2013-05-27 22:01:00,54.6,51.4,29.80,WSW,240,9.0,13.0,89,0.00,,,0.42,WUHU216DAVISVP2,2013-05-28 05:01:00,
2013-05-27 22:06:00,54.7,51.5,29.80,SSW,212,5.0,16.0,89,0.00,,,0.42,WUHU216DAVISVP2,2013-05-28 05:06:00,
2013-05-27 22:11:00,54.7,51.2,29.81,SSW,198,9.0,16.0,88,0.00,,,0.42,WUHU216DAVISVP2,2013-05-28 05:11:00,
2013-05-27 22:16:00,54.7,51.5,29.81,SW,214,4.0,16.0,89,0.00,,,0.42,WUHU216DAVISVP2,2013-05-28 05:16:00,
2013-05-27 22:21:00,54.6,51.4,29.81,SW,224,12.0,16.0,89,0.00,,,0.42,WUHU216DAVISVP2,2013-05-28 05:21:00,
2013-05-27 22:26:00,54.5,51.3,29.81,SW,219,7.0,16.0,89,0.00,,,0.42,WUHU216DAVISVP2,2013-05-28 05:26:00,
2013-05-27 22:31:00,54.5,51.6,29.81,SW,228,5.0,16.0,90,0.00,,,0.42,WUHU216DAVISVP2,2013-05-28 05:31:00,
2013-05-27 22:36:00,54.4,51.5,29.81,WNW,285,6.0,13.0,90,0.00,,,0.42,WUHU216DAVISVP2,2013-05-28 05:36:00,
2013-05-27 22:41:00,54.3,51.4,29.81,SSW,208,5.0,13.0,90,0.00,,,0.42,WUHU216DAVISVP2,2013-05-28 05:41:00,
2013-05-27 22:46:00,54.3,51.4,29.81,WSW,238,10.0,13.0,90,0.00,,,0.42,WUHU216DAVISVP2,2013-05-28 05:46:00,
2013-05-27 22:51:00,54.2,51.0,29.81,SW,215,6.0,13.0,89,0.00,,,0.42,WUHU216DAVISVP2,2013-05-28 05:51:00,
2013-05-27 22:56:00,54.2,51.3,29.81,SSW,204,11.0,12.0,90,0.00,,,0.42,WUHU216DAVISVP2,2013-05-28 05:56:00,
2013-05-27 23:01:00,54.2,51.0,29.81,WSW,248,5.0,13.0,89,0.00,,,0.42,WUHU216DAVISVP2,2013-05-28 06:01:00,
2013-05-27 23:06:00,54.1,50.9,29.81,WSW,250,6.0,14.0,89,0.00,,,0.42,WUHU216DAVISVP2,2013-05-28 06:06:00,
2013-05-27 23:11:00,54.1,50.9,29.81,SSW,203,7.0,15.0,89,0.00,,,0.42,WUHU216DAVISVP2,2013-05-28 06:11:00,
2013-05-27 23:16:00,54.1,50.9,29.81,SSW,205,8.0,15.0,89,0.00,,,0.42,WUHU216DAVISVP2,2013-05-28 06:16:00,
2013-05-27 23:21:00,54.0,50.8,29.81,WSW,241,18.0,18.0,89,0.00,,,0.42,WUHU216DAVISVP2,2013-05-28 06:21:00,
2013-05-27 23:26:00,54.0,50.8,29.81,WSW,256,10.0,18.0,89,0.00,,,0.42,WUHU216DAVISVP2,2013-05-28 06:26:00,
2013-05-27 23:31:00,53.8,50.6,29.81,SW,222,6.0,18.0,89,0.00,,,0.42,WUHU216DAVISVP2,2013-05-28 06:31:00,
2013-05-27 23:36:00,53.8,50.6,29.81,South,186,8.0,17.0,89,0.00,,,0.42,WUHU216DAVISVP2,2013-05-28 06:36:00,
2013-05-27 23:41:00,53.7,50.5,29.81,West,263,6.0,15.0,89,0.00,,,0.42,WUHU216DAVISVP2,2013-05-28 06:41:00,
2013-05-27 23:46:00,53.7,50.5,29.82,SW,232,6.0,15.0,89,0.00,,,0.42,WUHU216DAVISVP2,2013-05-28 06:46:00,
2013-05-27 23:51:00,53.6,50.4,29.82,SSW,203,7.0,15.0,89,0.00,,,0.42,WUHU216DAVISVP2,2013-05-28 06:51:00,
2013-05-27 23:56:00,53.5,50.3,29.82,SW,225,7.0,17.0,89,0.00,,,0.42,WUHU216DAVISVP2,2013-05-28 06:56:00,